Theta_e
329 325 326 324 321 320 318 316 302 309 307 301 300 303 300 306 306 306 306 307 305 312 315 313 319 315 311 311 313 313 312 309 311 306 307 324 333 337 339 339 340 340 339 336 337 338 339 343 345 345 346 346 345 342 341 341 340 340 341 343 344 344 344 343 341 341 342 342 343 344 345 344 343 344 343 342 343 344 344 345 345 345 345 345 345 345 345 345 345 345 346 346 346 344 344 343 343
324 324 325 327 321 318 312 310 306 303 303 299 301 302 303 305 306 306 306 307 309 310 314 318 318 316 314 316 314 315 314 319 319 319 327 331 335 336 339 340 339 338 338 334 336 336 340 342 347 346 346 346 344 342 341 340 339 340 343 345 344 345 344 344 343 343 344 344 345 345 344 345 345 344 343 343 344 345 345 344 344 344 344 345 344 345 345 344 344 344 345 345 345 344 343 343 342
322 322 323 322 319 316 312 311 301 301 299 297 299 302 303 304 306 308 309 309 310 312 314 317 317 314 313 313 311 311 314 321 322 326 327 333 329 332 338 340 341 339 335 333 336 338 340 342 345 346 346 345 344 341 340 339 338 339 340 345 345 345 345 345 344 343 344 345 345 345 344 345 345 344 343 343 344 344 344 344 342 342 345 344 344 344 344 344 345 344 344 344 344 343 343 342 343
327 323 319 318 310 317 307 306 304 301 299 299 299 302 303 305 307 309 310 310 313 314 314 314 312 315 314 309 313 315 312 320 325 328 326 329 332 335 338 339 340 338 336 336 337 339 339 343 344 345 345 345 344 342 339 337 336 337 339 340 343 345 345 344 344 345 345 345 345 345 344 344 344 342 341 342 342 343 341 345 345 344 344 344 344 344 344 345 344 344 344 343 343 343 342 342 342
326 322 322 317 312 306 308 305 303 302 298 300 299 302 302 304 308 309 308 312 313 312 314 315 315 318 318 316 318 312 318 325 325 330 330 333 338 337 338 339 338 336 334 334 337 339 340 340 343 345 345 345 345 341 339 337 337 337 338 339 340 343 346 346 345 345 345 345 345 344 345 345 344 344 343 343 344 343 343 345 344 344 343 343 344 344 344 344 344 344 344 343 343 343 342 342 342
322 322 324 320 308 312 307 301 300 299 303 304 301 302 303 305 308 310 310 313 312 312 312 315 313 315 312 319 321 319 325 318 328 329 332 332 337 338 339 340 337 333 332 332 336 338 340 339 343 345 344 345 345 342 340 339 339 337 337 339 341 342 345 345 345 345 345 344 344 344 345 344 344 344 343 344 343 343 343 344 344 344 343 343 343 344 344 344 343 344 343 342 343 342 341 342 341
318 317 318 314 311 312 303 300 299 301 303 303 304 303 305 305 310 311 311 310 312 310 310 315 315 315 311 319 321 325 328 329 328 330 335 337 340 338 338 337 336 332 333 334 335 337 342 339 342 346 345 345 345 342 340 340 339 338 337 340 342 342 345 345 344 344 344 344 344 344 343 343 343 343 342 342 343 344 344 344 344 343 343 343 343 343 343 343 343 343 343 342 342 342 342 341 341
321 315 314 307 305 306 300 301 301 302 302 303 304 303 304 305 310 312 310 310 308 309 310 314 316 313 313 318 314 325 329 331 332 335 336 338 338 338 338 336 334 332 333 335 337 338 343 338 342 345 345 344 345 342 341 340 338 338 337 337 340 343 343 344 344 344 344 344 344 343 342 343 342 342 342 341 342 343 343 343 343 342 342 342 342 341 341 342 342 343 342 342 342 341 341 341 340
318 314 311 309 302 303 299 298 301 302 302 302 304 305 307 306 311 312 310 310 309 310 311 315 317 309 314 316 314 326 328 331 332 334 336 336 336 338 337 335 333 332 334 334 336 340 341 338 341 343 344 344 345 343 342 339 338 338 337 336 340 343 343 343 344 344 343 343 342 342 342 342 341 341 341 341 341 342 342 341 341 341 341 341 341 341 341 342 341 341 342 341 341 340 340 340 340
314 314 307 306 305 299 299 299 298 301 301 303 304 305 304 305 308 313 311 308 310 310 313 317 314 309 313 312 317 324 328 332 333 334 335 336 337 337 336 335 335 333 334 335 336 339 341 343 338 341 342 344 345 345 342 340 338 338 338 337 337 343 342 343 344 343 342 342 342 341 340 340 340 340 340 340 340 340 341 341 340 340 340 341 341 340 340 340 340 340 340 340 339 340 340 340 339
307 311 312 305 301 299 299 300 299 301 300 303 303 305 305 305 309 310 312 310 310 310 313 314 311 311 313 313 319 326 329 332 332 330 334 336 338 336 335 335 335 334 333 336 337 339 341 342 341 338 340 342 343 345 345 341 338 338 338 337 336 340 344 344 343 342 341 341 340 340 339 339 339 340 340 340 339 340 340 340 340 340 340 340 340 340 340 340 339 339 339 339 339 340 339 339 338
306 307 309 303 301 301 301 301 301 301 302 302 302 307 304 305 309 308 309 307 308 311 312 313 311 317 311 314 317 325 328 331 332 333 335 336 336 336 335 335 335 335 336 335 337 338 340 340 342 341 336 339 340 341 342 341 340 340 340 339 337 338 343 342 342 342 341 340 340 341 341 341 340 340 340 340 341 340 339 340 340 340 340 339 339 340 339 339 339 338 338 338 339 338 338 338 337
309 309 305 303 302 301 301 298 301 300 302 302 302 306 306 306 307 310 310 310 310 310 311 316 319 316 309 311 322 324 325 331 333 335 336 336 336 336 336 333 333 334 335 337 336 337 340 338 339 343 340 335 336 337 338 339 340 340 339 339 339 340 343 342 341 341 341 341 341 340 340 340 340 340 340 340 340 340 339 340 339 339 339 339 339 339 339 339 338 338 338 339 338 338 337 337 337
309 310 307 303 301 301 300 301 301 300 301 303 303 306 306 306 309 311 312 308 309 310 312 318 317 313 311 314 318 323 325 332 332 335 336 337 337 336 334 333 332 333 335 335 334 335 336 338 338 341 343 343 344 339 334 335 337 338 338 338 339 342 343 342 342 342 341 340 340 339 339 339 340 339 338 339 339 339 339 339 339 339 338 338 338 338 338 338 338 337 338 338 338 337 337 336 335
310 309 307 305 301 300 301 300 302 301 302 303 303 306 306 309 308 309 310 309 310 311 312 317 319 311 306 309 312 321 327 332 332 335 336 336 336 335 333 332 330 331 332 333 334 335 334 337 338 340 341 341 342 342 343 341 332 334 335 336 338 339 340 338 338 338 337 337 336 335 335 335 334 334 334 335 335 335 335 333 334 337 337 337 338 337 337 337 336 336 337 337 336 336 335 334 333
313 308 307 302 300 300 302 301 298 300 303 303 302 302 307 307 306 308 310 308 309 310 312 312 316 311 315 312 315 321 330 332 333 335 334 334 334 333 332 331 329 328 331 332 333 334 335 335 338 339 339 339 341 341 341 341 333 331 333 334 335 336 336 335 334 333 331 330 330 330 330 334 333 334 330 334 331 332 332 332 332 336 337 337 337 336 336 336 335 335 335 334 334 334 333 332 331
313 312 300 301 299 299 302 301 301 301 303 302 301 305 306 307 305 306 306 308 309 308 310 315 316 319 317 315 322 324 331 333 332 333 332 331 332 330 330 329 327 327 329 332 332 333 335 335 335 337 338 339 340 340 340 341 340 330 332 330 330 331 332 332 330 326 324 323 326 325 329 337 338 337 337 337 330 337 324 326 330 334 336 336 336 336 335 334 334 333 333 332 331 329 327 326 326
310 303 302 299 301 299 304 303 303 304 302 302 300 306 308 307 305 306 309 309 310 310 310 315 316 317 321 323 325 328 332 331 332 330 329 329 329 327 327 327 325 324 326 329 331 333 333 334 334 335 337 338 338 339 340 340 340 335 338 340 340 335 330 329 335 340 335 338 325 333 337 336 335 336 336 335 336 335 332 324 327 331 334 334 335 334 335 334 333 332 332 331 329 327 327 332 329
307 303 302 299 302 303 306 305 305 303 302 302 301 302 308 308 307 307 306 307 308 307 309 312 314 318 321 323 326 329 329 329 330 329 328 327 327 326 326 327 326 325 325 327 329 332 333 334 333 332 335 337 338 338 338 338 337 337 336 336 337 333 336 338 338 338 338 337 337 337 333 335 335 335 335 334 335 323 331 323 326 329 331 331 331 332 332 331 330 330 327 326 326 325 332 332 332
308 304 301 301 305 304 304 304 304 304 303 302 301 300 303 307 307 307 306 306 307 306 308 309 310 312 319 323 325 328 328 329 329 328 327 328 328 327 327 327 326 326 326 327 329 332 333 333 333 332 334 336 335 335 336 336 334 335 334 334 333 336 337 338 338 338 337 337 337 335 334 335 335 334 326 325 328 335 328 320 320 321 323 324 325 329 327 328 327 325 324 323 327 329 332 331 331
307 304 302 304 304 303 305 305 304 303 302 303 301 300 301 304 305 306 306 305 305 308 311 310 310 312 320 322 325 327 326 327 328 328 327 328 328 329 328 328 327 327 327 328 329 328 331 332 333 332 334 334 334 332 333 332 334 334 334 333 332 334 335 335 336 337 337 337 336 334 335 335 335 333 334 333 333 333 333 334 333 334 334 332 324 333 333 331 331 332 330 329 331 331 331 331 332
307 306 308 303 304 303 304 305 304 303 299 302 300 301 302 303 302 304 306 304 305 309 311 312 312 315 321 321 324 326 326 326 327 327 327 327 328 328 329 330 330 330 329 327 327 328 330 332 333 333 333 334 333 333 333 332 333 332 332 331 332 331 334 334 334 335 335 336 336 334 334 334 334 332 332 331 331 331 330 330 330 331 331 330 330 331 331 332 332 332 332 331 330 331 331 331 331
306 307 305 304 304 303 301 302 299 300 300 301 301 302 302 302 303 305 305 306 308 307 307 310 312 314 322 325 325 325 325 325 326 326 327 327 328 329 328 329 328 328 329 327 329 329 330 331 334 333 333 333 333 333 333 333 333 331 331 332 330 331 331 332 332 333 334 335 335 335 333 331 331 331 331 330 330 331 330 329 329 329 329 328 329 330 330 330 331 331 331 331 330 330 330 330 329
309 310 308 305 303 303 302 301 298 299 301 302 302 301 301 301 300 303 302 307 310 311 310 307 306 317 325 324 325 325 325 325 325 327 328 329 329 328 330 329 329 330 329 328 329 329 330 330 332 333 333 333 333 333 332 332 332 331 331 331 331 330 330 331 332 332 333 332 334 333 332 331 329 330 330 330 330 330 329 329 329 328 328 329 329 330 329 328 329 330 331 331 329 329 329 329 328
307 308 309 304 303 303 302 302 300 300 301 300 300 301 302 303 303 300 302 306 308 309 313 313 313 318 322 323 324 326 326 327 327 328 329 330 330 331 331 331 331 331 329 329 329 329 330 331 331 331 332 332 333 332 331 331 332 331 331 330 330 328 330 332 333 333 332 333 333 333 333 331 331 331 330 330 330 330 329 328 328 328 328 329 328 327 328 328 329 329 330 330 330 329 328 328 328
308 310 308 304 304 302 302 302 302 300 300 299 299 301 303 302 300 300 304 306 308 311 311 316 318 319 321 322 324 325 326 326 327 327 328 330 330 329 330 330 330 329 330 330 330 329 330 331 331 331 331 332 332 332 331 331 331 330 330 330 330 329 329 332 333 331 331 332 331 332 333 332 331 330 331 330 329 329 328 328 328 328 327 328 328 327 327 327 327 328 329 330 329 329 327 327 325
310 310 308 306 305 303 302 303 302 298 300 299 300 302 302 299 300 300 305 306 308 307 310 318 314 315 319 321 324 325 326 326 327 329 328 328 328 328 328 330 330 330 331 330 330 330 331 330 331 331 331 332 332 331 331 331 331 330 331 331 331 330 329 330 330 331 332 332 331 332 332 332 332 332 331 330 330 329 328 328 328 328 328 328 328 328 328 327 327 327 329 328 328 328 327 327 325
306 308 305 305 306 304 303 302 303 301 302 300 302 301 299 299 299 300 303 302 305 307 311 313 315 313 318 321 323 325 326 327 328 328 326 326 326 327 328 328 329 330 330 331 332 332 331 330 330 331 331 331 331 331 331 331 330 330 331 330 330 330 330 329 328 330 330 331 332 332 331 332 332 332 332 332 331 330 329 328 328 328 328 328 328 329 328 328 327 327 328 329 330 328 326 326 326
303 305 304 305 305 305 308 305 307 302 304 300 301 298 297 297 297 301 302 303 307 306 309 313 314 314 317 320 323 323 325 326 328 327 327 329 329 329 329 331 331 330 332 332 332 332 331 331 330 331 331 331 330 330 330 331 331 330 330 330 330 330 330 329 328 328 330 332 332 331 331 332 332 332 332 332 331 331 331 330 329 329 329 330 329 329 330 330 328 327 326 326 326 326 326 326 327
303 303 306 302 302 301 307 307 304 301 307 301 302 298 304 303 300 301 302 302 305 304 305 311 313 316 316 320 321 323 324 325 326 326 328 329 330 330 330 331 332 332 332 332 333 331 332 332 331 331 331 330 330 330 330 330 330 330 330 331 330 330 330 329 328 329 329 331 331 331 331 332 331 331 332 332 332 331 332 331 331 330 331 331 330 329 328 328 328 328 327 326 324 325 326 326 325
303 301 303 303 301 303 302 303 301 300 302 299 303 298 303 308 302 303 303 303 303 303 305 307 312 315 316 318 319 321 323 325 325 326 328 330 330 331 331 332 332 332 332 331 331 333 332 332 331 331 331 331 331 330 330 330 331 330 330 330 330 330 329 329 329 330 330 330 331 330 331 330 330 332 333 331 331 331 331 330 329 331 332 331 329 329 328 329 329 328 327 326 327 326 326 326 325
301 300 297 299 301 305 299 300 299 301 298 300 301 297 301 306 306 304 303 302 303 303 304 305 308 313 315 316 317 319 321 324 325 326 327 329 330 330 330 331 332 332 331 332 332 333 333 333 332 331 331 331 331 330 331 331 331 331 331 327 330 331 329 329 329 330 330 331 331 331 331 331 330 331 332 332 330 330 329 329 329 331 332 330 329 329 329 328 328 329 328 328 325 326 326 326 326
298 300 298 296 300 304 302 301 300 302 299 298 301 300 303 302 306 306 302 302 301 302 304 305 305 309 314 315 317 318 320 322 325 325 327 328 329 330 330 330 331 332 332 332 331 331 332 333 332 331 331 331 331 331 331 331 332 331 331 331 331 330 329 329 329 330 331 331 331 331 331 331 330 331 331 331 331 331 329 329 330 332 332 330 329 328 327 328 328 328 328 328 327 325 326 326 326
295 299 299 301 299 302 300 301 300 300 299 297 298 298 302 306 302 301 298 302 302 301 303 304 305 305 311 315 316 317 318 320 321 323 325 327 328 329 330 328 331 332 332 332 332 331 331 332 333 332 332 332 332 331 331 331 331 331 331 331 330 330 330 330 330 330 330 330 332 331 332 331 330 331 331 331 330 331 331 331 332 332 331 329 328 328 327 328 329 328 327 328 327 326 325 325 325
293 295 297 299 299 300 301 301 299 298 297 297 298 296 299 302 306 303 302 300 301 301 302 304 305 305 305 309 314 316 317 318 320 323 325 327 328 329 329 330 331 332 332 332 332 331 331 331 332 332 331 332 332 332 331 331 331 332 332 331 331 330 331 331 330 329 330 330 331 332 333 332 330 331 330 330 329 330 330 330 330 331 330 329 328 327 327 327 326 327 327 326 326 326 326 326 326
298 299 300 300 298 298 297 302 298 299 296 295 296 295 297 299 301 303 304 302 300 301 303 303 304 304 304 304 307 312 315 317 321 323 325 327 328 328 329 330 331 331 331 331 330 331 331 331 331 332 331 331 331 332 332 330 329 329 329 330 330 329 330 329 330 330 330 330 331 332 332 332 331 330 330 330 329 329 329 329 329 330 329 328 327 327 326 325 325 325 326 326 325 325 325 325 325
303 302 300 299 300 301 299 299 297 297 297 297 298 297 298 299 300 301 302 303 302 301 300 301 303 303 304 304 305 307 311 314 320 323 324 326 327 328 329 330 329 329 330 330 330 330 330 330 330 329 331 332 330 331 330 329 328 328 329 329 328 329 329 330 329 330 330 330 331 332 333 332 332 330 330 330 329 326 329 330 330 330 329 327 326 326 328 327 327 327 326 326 325 324 324 324 324
301 299 298 296 298 299 301 300 298 298 296 299 301 298 299 299 301 302 302 301 300 300 300 300 301 303 304 304 305 307 308 313 316 316 319 322 324 327 328 328 326 327 328 329 328 329 330 331 330 329 330 330 330 330 331 330 330 330 329 328 329 330 330 328 328 330 330 331 331 331 332 332 332 331 329 330 329 328 328 328 328 329 327 327 327 328 328 325 328 327 326 324 324 323 323 326 323
300 299 298 298 298 300 299 297 297 297 296 296 300 297 299 301 303 304 304 302 303 303 303 302 302 302 303 304 304 305 307 309 310 311 315 320 323 325 326 327 327 328 328 328 329 329 330 330 330 330 330 330 330 330 330 331 331 332 332 331 331 331 333 332 331 331 331 331 331 331 331 332 332 331 331 330 329 328 328 329 328 329 328 327 326 326 327 327 327 326 325 324 323 323 324 326 322
299 298 297 296 300 297 297 300 298 298 297 297 297 295 297 300 302 301 303 303 303 304 304 304 304 303 304 304 305 305 305 306 307 309 310 315 319 322 324 325 326 327 327 328 328 329 329 328 329 329 330 330 330 330 328 332 332 333 333 333 334 332 332 333 333 332 332 331 330 332 333 333 333 332 333 333 332 331 330 329 330 330 329 328 327 326 326 325 326 326 326 325 325 322 321 322 322
299 300 299 299 295 298 300 296 296 297 298 296 296 296 297 300 299 301 304 306 304 303 303 303 303 304 305 307 308 306 305 305 306 307 309 310 314 318 321 323 326 326 326 327 328 328 328 328 329 329 330 331 331 330 330 331 332 332 333 334 334 334 334 332 331 330 331 330 330 331 332 334 334 333 333 333 332 331 331 331 330 330 329 328 327 326 326 326 326 326 326 325 325 323 321 322 322
297 299 300 300 299 297 296 297 297 297 298 296 297 292 295 302 302 302 305 306 303 304 302 302 302 302 303 302 303 306 307 307 306 307 307 309 311 315 319 322 324 325 325 327 328 329 329 329 330 330 331 331 331 332 331 331 330 330 329 328 326 327 326 327 326 326 328 328 328 332 333 333 334 334 334 333 332 329 331 331 330 329 328 327 326 326 327 327 327 326 325 325 325 326 323 322 322
295 296 301 300 299 299 297 295 296 293 292 295 294 291 290 299 299 301 302 303 303 305 303 303 304 302 302 301 302 303 304 305 306 306 308 307 309 312 315 319 322 323 325 327 328 329 329 330 330 330 330 331 332 332 332 329 330 330 330 329 328 327 326 327 330 331 330 331 332 331 332 333 333 333 333 332 332 330 331 331 329 328 328 327 326 327 327 327 327 327 325 324 324 325 325 321 321
295 301 300 300 299 298 298 297 297 296 295 296 293 295 289 289 295 301 302 301 302 303 304 304 304 304 303 303 303 303 304 305 306 306 306 307 307 309 310 315 319 321 323 326 327 328 328 329 330 330 330 330 331 332 331 330 329 330 329 329 328 328 328 328 330 330 331 331 332 331 332 331 332 332 332 332 331 329 328 329 329 328 327 327 324 324 325 326 326 327 325 325 325 325 325 323 321
298 300 302 299 299 299 298 297 295 293 290 289 294 294 289 290 295 300 300 297 299 300 301 303 304 304 305 305 305 304 305 305 306 307 307 306 306 307 309 312 316 320 323 324 326 327 328 329 329 330 330 330 330 331 330 330 329 329 329 329 328 328 329 329 330 331 331 332 332 332 331 331 331 331 332 332 332 332 329 329 330 329 328 327 325 323 325 326 326 326 324 322 321 323 324 324 322
297 301 302 301 300 298 297 295 293 290 288 286 291 293 289 291 296 296 298 298 299 300 303 304 304 305 305 305 306 306 305 306 306 306 308 308 308 308 309 310 313 316 320 323 325 326 328 328 328 328 328 329 329 329 329 329 330 328 328 329 328 328 328 329 330 330 330 330 329 330 330 330 330 330 331 332 333 332 331 330 330 329 329 328 324 324 324 325 326 326 326 323 321 321 322 322 320
300 300 297 295 294 292 291 292 291 289 284 287 292 293 293 287 297 298 296 297 299 302 303 304 306 307 306 305 305 306 305 304 306 306 306 307 309 309 310 307 308 311 317 319 321 324 326 327 327 327 327 328 329 328 329 328 329 329 327 328 328 327 328 328 328 328 328 329 328 328 329 329 330 329 330 330 331 331 331 329 329 329 329 328 326 326 325 325 326 326 326 324 323 323 322 321 319
299 296 293 292 289 292 289 288 290 285 285 289 293 292 293 286 293 298 301 297 298 299 300 302 304 305 305 305 304 305 305 304 304 304 305 306 306 307 306 305 306 308 311 313 317 320 322 324 326 326 326 327 328 328 328 327 327 327 328 328 328 328 328 327 326 326 327 327 327 327 329 329 329 329 329 329 329 330 329 328 328 328 327 327 326 326 326 326 327 328 326 324 324 325 324 321 320
296 295 294 289 284 285 282 285 281 282 284 287 292 293 289 289 296 298 298 300 302 300 299 300 302 304 306 306 305 304 305 305 304 305 306 306 306 305 305 304 305 306 309 311 314 317 320 322 323 324 325 326 327 328 327 327 327 327 327 327 328 329 328 327 327 326 327 326 327 326 327 327 328 327 328 327 328 329 329 328 327 327 327 327 326 325 325 325 325 325 325 325 324 324 323 321 320
293 291 291 288 282 281 280 282 284 284 286 287 289 291 287 294 297 301 300 302 304 305 304 303 302 303 304 306 308 305 305 303 303 304 306 306 306 307 306 305 305 306 306 309 313 316 318 320 322 322 323 325 326 327 327 327 327 327 327 327 327 328 327 327 327 327 327 327 327 326 327 327 327 327 327 327 329 329 329 329 328 328 328 328 327 326 326 326 325 324 323 323 322 322 322 321 321
292 297 295 290 288 284 281 283 281 284 286 285 290 287 286 287 294 296 297 299 300 300 299 301 302 303 303 303 301 299 299 300 301 302 303 304 305 306 307 306 306 306 306 307 310 313 316 317 319 321 322 324 325 325 326 326 326 327 327 328 327 327 327 327 327 328 328 327 327 327 327 327 327 328 328 329 329 329 329 329 329 328 327 328 327 326 325 326 326 324 323 322 321 321 320 319 320
295 297 298 293 290 296 288 288 288 284 284 282 283 286 293 294 297 298 300 300 299 299 299 298 298 300 301 301 301 300 300 301 302 302 302 302 303 304 305 306 306 306 306 306 306 310 313 315 317 319 320 322 324 324 325 326 326 327 327 327 327 326 326 327 327 327 328 328 328 327 327 327 327 328 329 329 329 329 328 328 328 327 328 327 327 326 325 324 324 323 322 320 319 318 317 316 316
293 294 288 292 296 294 287 285 284 285 285 284 288 287 291 297 298 300 300 300 300 302 301 300 299 299 301 301 303 303 303 303 303 304 304 305 305 304 304 303 304 304 305 305 305 307 311 314 316 317 319 321 322 323 324 325 325 326 326 326 326 326 326 326 326 327 328 329 329 328 327 327 328 328 328 329 329 328 328 328 327 327 327 327 326 324 323 322 321 320 319 317 316 314 314 314 314
294 288 292 295 298 296 290 286 283 284 283 286 287 285 288 289 288 296 297 297 299 301 301 302 301 300 298 300 302 303 304 305 304 304 304 305 305 305 304 304 304 304 303 304 304 305 307 311 314 315 316 317 319 321 322 324 324 324 325 325 325 326 326 326 326 326 327 328 328 328 328 327 327 328 329 329 328 327 327 322 327 326 326 326 325 323 322 322 320 319 318 317 317 314 314 314 314
296 292 300 292 285 285 289 288 279 280 280 283 285 286 286 290 292 296 295 295 297 298 300 300 301 302 300 300 301 302 303 303 303 302 302 303 303 304 306 305 305 304 303 304 304 304 306 308 311 313 315 317 318 320 322 323 323 324 324 324 324 325 325 326 326 326 327 327 326 327 326 327 327 327 326 326 326 326 326 326 326 325 324 324 324 323 322 321 319 317 317 315 314 313 313 311 310
295 299 295 299 295 290 286 287 287 288 283 282 283 283 285 292 293 296 297 298 299 300 300 301 302 303 302 302 303 303 304 304 304 303 303 303 303 303 304 305 306 305 304 303 303 304 303 305 308 310 314 316 317 319 320 320 322 323 323 324 324 325 325 325 325 325 325 325 325 326 326 325 325 325 325 325 325 325 324 323 323 323 322 322 322 321 320 318 317 316 313 312 310 311 311 309 305
288 291 291 293 291 294 294 292 287 287 285 284 284 284 288 294 297 296 298 300 301 302 302 302 302 304 303 302 303 304 303 304 304 304 303 302 301 301 302 303 304 305 305 304 304 303 303 304 305 308 309 312 314 317 319 320 321 322 322 322 323 323 324 324 324 324 324 324 324 324 324 324 324 324 324 323 324 324 323 322 322 321 321 320 320 319 318 317 314 313 312 312 309 310 309 308 306
291 292 290 292 289 286 285 283 290 285 287 282 283 282 290 296 294 297 299 300 301 302 302 301 302 302 300 303 303 302 303 303 301 301 300 300 299 300 300 300 301 301 302 302 303 303 303 303 304 307 309 311 312 315 317 319 320 321 320 321 322 322 323 323 323 323 323 323 323 323 323 323 323 323 323 323 322 322 321 321 320 320 319 318 318 318 314 313 312 312 311 311 308 309 308 306 305
Wind_Speed
3 2 1 1 1 2 3 3 4 3 3 2 2 1 4 0 1 3 4 5 6 3 4 3 9 9 3 2 6 6 5 2 4 2 4 3 4 10 10 6 10 10 10 8 8 10 10 8 7 10 11 11 11 10 9 8 8 8 10 11 10 9 8 9 9 11 11 11 12 13 12 13 13 13 12 13 14 13 13 14 13 13 14 14 15 16 16 16 17 17 18 18 18 19 18 19 18
1 1 0 2 1 2 1 2 1 1 1 3 2 1 4 3 2 6 7 7 4 6 6 5 9 4 1 4 3 2 3 6 5 5 3 3 8 9 8 8 11 10 9 8 8 9 10 9 8 11 12 12 12 11 9 8 7 8 10 9 9 9 8 8 10 10 10 11 13 13 13 13 13 13 12 12 13 14 13 13 13 13 15 14 14 16 16 16 16 17 18 18 18 18 18 18 18
2 3 2 1 1 3 2 2 4 1 2 1 3 1 3 4 5 4 4 3 4 6 6 6 6 5 2 2 4 5 4 2 3 3 5 8 12 10 8 9 10 10 10 8 8 9 8 10 10 12 13 13 13 11 10 9 8 7 9 12 9 10 8 8 10 11 11 12 12 13 14 13 13 13 13 13 14 14 13 12 12 13 15 14 15 15 16 16 16 16 17 17 17 17 17 17 17
1 3 1 1 1 2 1 2 2 2 2 3 1 3 4 3 3 3 5 4 4 7 7 8 9 1 3 2 3 1 1 2 2 5 6 10 5 11 9 11 10 9 8 7 8 9 8 9 8 12 13 13 12 12 11 10 8 7 8 9 11 11 9 8 9 12 12 11 12 13 13 13 13 13 13 13 13 13 13 14 14 14 14 14 15 15 16 17 16 16 16 17 17 17 17 17 16
1 1 2 0 3 1 1 1 1 2 2 2 2 3 3 4 2 5 5 4 5 3 6 7 4 3 2 4 2 3 4 4 2 2 5 7 7 11 10 11 10 9 9 9 9 9 8 8 6 10 12 13 11 12 12 10 8 6 8 8 8 10 10 9 9 12 13 13 12 14 13 12 13 13 13 13 13 13 14 14 14 14 13 14 15 16 16 16 16 16 17 17 17 17 16 16 16
1 1 4 1 2 2 2 4 4 4 4 1 1 4 1 3 5 6 6 6 4 0 2 10 2 6 4 2 1 2 2 1 4 4 7 7 10 12 13 11 10 9 9 9 9 8 9 5 6 8 12 12 11 11 12 10 9 6 5 9 9 10 11 10 10 11 13 13 13 14 13 13 14 13 13 13 12 13 14 15 14 14 14 14 15 16 16 16 16 16 16 16 16 16 15 15 15
1 1 3 3 3 2 2 2 2 2 4 2 2 2 3 4 5 10 9 7 3 1 1 6 1 4 4 4 3 0 2 3 5 3 6 9 11 12 13 11 10 10 10 9 9 8 10 5 3 7 9 11 9 11 12 11 10 8 5 10 9 10 11 10 9 10 13 13 13 14 13 13 14 13 12 12 13 13 14 15 15 15 14 14 14 15 16 15 16 16 15 15 15 15 15 15 15
2 3 2 3 2 3 2 1 1 2 2 2 3 2 3 4 7 9 11 9 7 6 7 1 3 6 3 1 1 5 2 2 4 3 7 11 12 13 11 11 10 10 10 9 9 8 7 3 3 6 8 11 9 11 11 11 10 9 6 7 11 10 10 10 10 11 13 13 13 13 13 12 12 12 11 11 12 12 13 13 14 14 14 14 14 14 15 14 15 15 15 15 15 15 15 14 14
4 2 1 2 2 1 1 2 0 1 2 2 4 4 2 1 7 9 11 3 4 2 8 7 4 5 4 4 1 5 2 2 1 6 9 12 13 13 9 11 10 10 10 9 8 8 9 4 4 4 7 10 10 9 12 11 10 10 7 5 10 10 10 11 11 11 13 13 13 13 12 11 12 11 11 11 11 12 12 12 12 12 13 14 14 13 14 14 14 15 15 15 15 14 14 14 13
2 3 3 0 1 3 1 2 4 2 3 1 4 2 5 4 7 7 10 6 4 6 4 2 2 4 2 2 4 5 3 3 5 8 10 13 13 12 11 10 9 11 10 9 9 9 8 6 5 5 6 7 9 7 10 11 10 10 9 7 8 12 10 11 12 11 12 12 12 12 12 11 11 11 11 10 10 11 11 11 12 12 12 13 13 13 13 13 13 14 14 14 14 13 13 13 13
2 3 2 4 4 3 4 3 4 3 3 1 5 8 4 5 7 6 7 6 4 5 5 4 4 6 3 1 1 4 3 6 9 11 11 12 12 12 10 10 8 11 10 10 10 10 10 9 5 5 5 5 8 7 4 11 10 10 9 8 6 8 12 12 12 11 12 12 11 12 11 11 11 11 10 10 9 9 10 11 12 12 12 12 12 13 13 13 13 14 13 13 13 12 12 12 12
3 2 3 5 5 4 2 3 2 1 2 2 4 4 3 7 7 7 8 8 6 5 6 10 2 6 4 1 3 4 4 7 9 11 11 12 10 11 10 8 8 8 9 10 11 10 10 9 8 6 5 6 8 5 1 9 9 9 8 7 5 4 11 11 11 11 11 11 11 11 12 12 11 11 10 9 7 8 10 10 11 11 12 11 12 12 12 12 12 13 13 12 11 12 12 11 11
1 1 4 5 2 4 2 3 1 2 4 5 1 2 3 9 11 11 11 5 9 8 5 11 2 4 4 3 4 4 7 9 9 13 12 11 10 9 7 8 8 8 9 10 11 10 10 9 9 9 7 8 8 6 4 8 9 7 7 7 5 4 11 10 10 10 11 12 12 11 11 11 10 10 10 9 7 8 10 10 10 11 12 11 12 12 11 11 11 12 11 11 11 11 10 10 10
1 1 3 5 2 1 3 2 1 3 3 4 3 3 6 4 7 3 7 8 10 9 4 8 2 3 2 1 5 5 7 11 12 14 12 12 10 9 8 8 9 8 9 10 11 10 10 9 9 10 8 10 10 7 5 5 7 7 7 6 4 6 8 8 9 9 10 10 10 9 10 10 9 10 9 8 8 8 8 8 8 10 11 11 11 11 11 11 11 11 10 10 10 10 10 10 9
0 1 2 1 3 2 2 4 3 4 1 3 3 4 4 2 3 2 9 11 7 6 2 2 0 3 1 6 3 5 10 14 13 14 12 11 11 9 9 8 9 8 9 11 10 10 10 10 10 9 10 9 10 10 9 7 6 6 6 5 6 8 9 9 9 9 9 9 10 9 9 9 10 9 9 9 9 9 8 8 7 8 10 10 10 10 11 10 10 10 10 10 10 10 9 9 8
2 2 1 5 5 6 4 5 0 1 1 2 3 1 5 3 0 4 3 4 4 2 3 6 3 3 2 1 6 4 14 15 14 14 13 12 11 9 9 9 8 9 9 10 10 10 9 10 10 9 9 9 9 9 9 10 6 6 6 7 8 9 9 9 9 9 9 9 9 10 9 9 8 8 8 8 9 8 7 8 6 7 9 10 10 10 10 10 9 10 10 10 9 9 9 8 8
1 1 4 5 7 6 5 6 6 4 3 2 4 5 6 4 2 2 2 3 3 5 5 0 5 1 2 4 5 4 14 14 14 15 14 11 10 8 8 8 8 8 8 10 10 9 10 10 11 9 9 10 10 9 8 9 7 7 6 7 8 9 9 9 9 9 8 7 8 8 8 7 7 7 7 7 7 7 8 9 8 8 8 9 10 10 10 9 9 10 10 10 9 9 8 8 7
1 4 6 6 5 9 6 7 6 3 1 3 5 6 5 5 5 3 3 4 0 3 6 2 1 4 2 4 2 8 15 16 16 17 14 13 11 9 9 9 9 9 10 10 10 10 10 10 12 11 9 10 10 8 6 6 6 7 8 7 7 8 8 9 8 8 8 7 6 6 6 6 6 6 6 7 7 8 7 9 9 9 9 7 7 10 10 9 9 9 9 9 7 6 2 4 5
5 2 3 9 6 3 3 3 5 2 4 3 2 3 6 1 7 5 6 7 7 6 7 5 6 6 3 1 5 12 15 15 16 17 18 16 13 14 11 9 10 9 9 10 10 11 9 9 11 11 11 10 10 8 6 6 8 7 8 8 7 8 8 8 8 8 7 7 7 6 5 5 5 6 4 4 4 7 8 8 9 8 8 8 9 10 9 9 8 8 8 7 6 2 3 3 3
2 4 8 9 3 1 2 2 4 2 3 2 2 3 5 1 3 5 6 5 5 10 8 8 10 11 9 6 7 12 15 15 16 17 17 16 14 14 13 13 12 10 10 10 10 9 10 9 11 11 11 11 10 9 7 8 7 7 6 7 7 8 9 8 8 8 7 7 6 6 5 5 5 5 8 8 7 6 5 7 8 9 8 7 6 6 8 7 8 8 7 5 3 2 2 2 2
4 5 9 3 6 5 4 5 2 2 1 0 2 4 5 3 3 6 4 5 8 10 12 11 12 12 10 10 11 13 15 15 16 16 16 15 15 13 13 13 11 9 8 8 9 11 12 11 10 11 11 11 11 9 9 8 8 7 6 7 7 7 8 8 8 8 7 7 7 6 5 5 4 5 6 6 6 5 6 5 5 5 5 4 3 5 5 4 5 5 4 3 3 3 2 2 1
4 10 4 4 4 6 3 2 2 3 0 2 3 5 3 4 1 8 7 8 5 7 10 12 10 3 13 13 13 14 16 16 17 18 18 18 18 17 14 13 12 10 8 9 10 10 12 12 11 10 11 11 11 9 9 8 8 8 8 7 6 7 8 8 8 8 8 8 7 6 5 5 4 4 6 6 5 5 5 4 4 4 4 4 3 5 5 5 5 5 4 3 3 2 2 2 1
8 9 4 2 3 3 3 3 2 4 4 5 4 1 4 6 3 7 9 11 4 5 4 2 5 5 10 12 14 15 16 18 19 20 19 19 19 18 16 13 12 12 9 9 9 9 11 13 12 11 11 11 12 10 8 8 8 8 7 7 7 7 8 8 8 8 8 8 8 6 6 6 5 4 5 6 6 5 5 5 4 4 4 4 4 5 4 3 4 4 4 3 2 2 2 2 2
8 8 6 7 3 4 3 3 4 2 3 2 2 2 5 4 7 3 9 11 12 4 3 1 0 3 12 13 15 17 18 19 21 20 20 20 19 19 15 14 12 11 10 10 10 9 10 14 14 13 11 12 11 11 10 9 9 8 8 7 7 6 7 8 8 8 8 8 8 6 7 6 6 5 5 5 5 5 5 5 4 4 3 2 2 3 3 3 3 3 2 2 3 2 2 2 2
10 10 6 3 3 2 1 0 3 3 4 1 1 5 8 8 3 3 8 12 13 6 3 2 3 6 10 12 14 14 15 15 16 17 15 14 15 15 15 12 13 12 13 12 10 10 12 12 14 14 13 13 11 11 11 9 9 9 9 8 8 7 8 7 7 7 8 8 9 8 7 6 6 5 5 5 5 5 5 5 5 4 3 2 2 3 3 3 3 3 3 4 3 3 3 3 2
11 11 3 3 5 2 0 3 4 4 1 3 5 9 7 2 3 8 13 10 10 3 4 4 6 8 10 12 13 13 14 17 16 15 17 14 13 17 17 15 14 15 14 13 11 10 10 12 13 15 15 13 12 11 10 10 9 9 9 9 8 7 8 6 7 7 7 7 7 9 7 7 6 5 5 5 5 5 5 6 5 4 4 3 3 3 3 3 4 3 3 3 3 3 3 1 2
4 10 6 4 3 1 1 5 1 2 3 4 8 10 6 3 5 8 7 10 2 4 6 4 8 10 11 10 11 12 13 16 18 14 11 13 14 16 17 16 16 16 15 15 13 11 10 12 13 14 15 13 12 12 11 10 10 10 10 9 9 9 9 7 6 6 7 7 7 8 9 8 6 6 6 6 5 5 5 5 5 4 4 3 3 3 3 3 3 4 4 4 4 4 3 1 3
2 4 3 6 6 5 4 5 6 1 5 9 8 10 2 4 5 12 3 3 2 6 6 6 9 10 10 11 12 12 12 12 11 12 17 17 15 16 18 16 18 16 17 17 14 12 11 13 13 14 14 13 12 13 11 11 10 10 10 9 9 9 9 9 8 7 6 6 7 8 8 8 7 6 7 6 6 5 5 5 5 5 4 4 3 3 3 3 3 2 2 2 2 3 3 2 2
4 5 5 6 6 9 10 12 10 6 8 7 5 7 11 8 12 9 10 4 4 7 7 8 9 10 10 10 10 10 11 11 11 12 16 16 14 14 18 17 15 15 12 15 15 13 15 13 12 13 14 14 15 14 12 11 10 10 10 10 9 8 9 9 8 7 6 6 7 8 8 8 7 7 7 7 7 6 5 5 5 5 5 4 4 3 3 3 3 3 3 2 3 3 3 3 2
6 4 6 2 5 8 12 10 6 7 8 8 6 11 13 15 16 10 8 7 6 7 9 9 8 9 8 8 9 9 9 10 13 15 14 14 13 15 16 16 17 14 12 12 16 16 14 10 11 10 13 15 15 13 12 11 11 10 9 9 9 9 9 9 9 7 7 6 7 8 8 9 7 7 7 7 7 6 5 6 6 5 5 5 4 4 4 4 5 4 4 4 4 4 4 4 3
7 4 3 6 4 6 6 7 9 10 4 9 8 13 12 9 10 14 7 8 9 11 12 11 9 9 8 8 8 9 11 12 14 15 14 13 13 12 15 14 16 16 12 14 17 18 16 14 11 12 13 15 14 15 14 12 11 10 10 10 10 10 9 9 8 7 7 7 7 7 9 9 9 8 8 7 7 6 6 7 8 7 5 5 5 5 5 5 5 5 5 5 4 5 5 4 4
4 6 7 3 7 4 5 4 9 13 3 6 9 12 15 15 8 7 7 8 10 12 12 11 10 9 10 9 10 10 11 11 13 13 14 14 13 13 14 16 16 17 17 15 14 15 18 18 15 14 15 17 16 15 14 13 12 12 10 10 10 11 10 9 9 8 7 7 7 7 9 9 9 9 9 8 7 7 7 8 8 7 5 5 5 5 5 6 6 5 6 5 6 6 6 5 5
3 7 4 8 6 8 2 9 8 11 2 7 14 10 6 10 12 10 8 11 12 13 13 12 12 11 10 10 9 9 9 11 11 14 15 14 14 13 13 15 16 18 17 15 15 16 17 18 15 17 17 16 16 16 16 14 13 13 12 11 11 11 10 10 9 8 7 8 7 8 9 9 9 9 9 9 7 8 8 9 8 6 5 5 5 5 5 6 7 6 6 5 7 7 7 7 6
7 3 4 6 10 8 7 5 4 6 7 9 13 13 19 14 2 3 1 5 9 10 13 12 11 9 9 8 9 10 10 10 13 15 16 16 13 17 14 14 16 16 16 16 16 16 18 17 17 17 17 16 15 15 15 15 14 13 12 11 11 11 11 10 9 9 9 8 8 8 8 9 9 10 10 9 8 7 7 7 7 6 5 5 5 5 6 6 6 7 8 6 6 7 7 7 7
9 8 8 8 9 9 6 5 5 6 8 12 12 16 19 20 16 9 7 7 7 10 11 14 12 10 9 7 8 10 10 11 14 13 14 16 16 15 14 14 14 15 13 17 17 17 15 15 16 16 15 16 15 14 14 14 14 14 12 12 12 12 11 10 10 10 10 9 8 9 9 9 8 10 10 10 9 7 7 6 5 5 5 5 6 6 6 5 4 5 7 7 5 6 7 7 7
15 16 10 4 8 8 10 5 4 6 8 10 15 14 16 21 18 15 13 8 9 11 11 11 11 10 10 9 9 9 10 13 12 8 12 13 14 14 13 13 13 13 14 15 18 18 17 17 16 16 16 16 15 13 12 12 11 12 13 12 12 11 11 10 10 10 10 10 9 9 10 9 9 9 9 9 8 8 8 7 7 6 6 6 6 7 6 6 7 7 7 8 7 5 5 5 4
10 7 4 7 8 5 2 3 4 2 5 12 16 17 18 18 17 15 12 12 10 10 13 12 13 10 10 10 10 11 12 14 7 7 9 12 14 14 13 13 13 15 16 17 18 19 20 18 17 19 16 16 14 13 13 11 11 11 12 14 13 12 11 10 10 10 10 10 11 11 12 11 9 10 9 9 9 8 8 7 8 7 6 6 7 8 8 8 8 8 7 6 7 7 7 5 4
8 8 8 6 6 7 4 4 5 1 5 9 8 11 16 18 19 18 12 10 16 16 15 14 15 15 11 12 12 12 12 7 3 7 10 12 12 14 13 12 14 16 17 18 19 21 21 21 20 18 15 16 18 17 12 12 12 12 11 12 11 11 11 11 11 10 10 9 11 11 11 12 10 10 9 9 8 9 8 7 7 6 7 7 7 7 8 8 8 7 6 5 5 8 8 6 4
7 8 7 6 7 3 4 2 2 2 3 11 13 15 17 18 18 18 16 14 15 16 16 15 13 15 13 10 13 13 9 10 9 11 10 10 13 13 13 13 15 18 17 18 20 20 20 19 19 18 17 17 17 18 15 14 13 13 13 11 11 11 11 10 10 11 10 11 11 11 11 12 12 10 10 11 9 9 9 9 9 8 8 7 7 8 11 11 8 9 9 9 8 6 7 5 5
7 7 7 10 5 7 6 3 4 4 5 5 7 14 14 16 17 20 21 18 17 16 17 17 13 15 17 16 12 11 13 12 12 12 13 13 12 12 13 14 15 15 15 16 17 18 16 17 18 18 18 18 15 16 15 15 14 14 14 13 13 13 12 10 11 11 11 12 13 11 12 12 12 10 12 12 9 10 11 11 10 9 9 8 8 9 10 11 9 8 9 9 9 9 5 6 6
9 10 9 7 7 8 6 2 1 1 6 3 11 15 17 16 17 15 19 20 19 17 15 16 14 13 14 11 10 12 15 13 12 12 12 12 13 15 17 17 14 14 16 17 17 17 14 19 20 20 19 18 17 16 15 15 12 11 10 10 12 12 11 11 10 11 12 12 11 13 14 14 14 12 11 14 14 12 10 10 10 8 9 9 8 8 8 9 10 9 10 9 10 11 9 8 6
8 11 11 7 6 6 2 2 4 5 7 5 5 8 11 6 16 15 10 7 11 14 16 18 16 15 14 16 17 13 12 12 14 14 13 14 15 14 13 14 15 16 17 17 16 17 17 16 18 19 18 18 18 20 18 15 14 15 13 14 15 14 14 14 15 15 13 14 14 12 12 15 15 14 14 15 14 10 13 13 11 10 9 8 9 9 9 9 10 10 8 8 10 10 10 9 9
9 9 12 6 8 8 7 5 3 6 11 2 2 8 11 1 6 5 6 8 10 9 14 17 19 18 16 15 13 13 14 13 12 13 11 10 12 12 14 14 16 17 17 16 15 16 18 16 17 18 17 16 16 17 19 15 17 15 17 18 15 17 17 15 13 11 12 13 10 13 12 11 15 15 14 13 10 11 14 15 11 11 13 12 7 8 10 12 10 9 8 8 8 8 9 10 11
8 11 15 11 11 11 10 8 9 9 5 4 6 6 13 15 12 12 11 16 18 17 16 17 17 18 18 16 15 14 14 15 12 14 16 14 14 15 16 18 17 18 17 15 15 16 18 19 17 18 15 15 14 15 18 18 17 17 17 17 15 17 17 17 15 14 14 11 10 12 11 12 13 16 13 13 13 11 9 9 11 13 11 8 8 8 9 9 10 7 8 9 9 8 9 10 10
2 11 13 13 12 11 8 7 5 2 4 9 7 6 7 11 0 10 10 11 12 16 18 18 15 16 18 20 19 17 18 17 16 14 16 15 16 15 16 15 17 17 11 14 16 16 16 16 17 16 17 16 15 16 17 20 18 18 19 17 16 15 16 16 11 10 11 12 16 13 11 11 13 14 14 14 14 14 11 11 10 11 12 13 9 9 11 9 11 12 10 10 10 11 11 10 9
2 9 9 6 5 3 6 5 4 2 4 11 7 8 7 20 7 7 11 12 15 17 17 15 17 18 17 16 18 16 15 14 15 17 15 14 14 14 15 14 11 12 13 14 14 12 13 13 15 17 18 16 16 19 20 22 21 16 17 18 20 18 14 14 13 15 15 15 17 17 11 11 10 11 13 14 14 17 15 13 14 14 11 13 10 11 10 11 12 13 12 11 10 10 10 11 9
11 13 12 8 5 3 3 2 2 2 10 11 10 11 5 13 3 10 9 8 12 10 8 9 11 13 14 15 17 14 13 13 12 13 13 14 12 13 7 11 12 11 8 11 12 14 14 14 16 18 19 15 16 20 21 23 19 20 20 21 23 22 20 16 14 17 16 16 16 16 12 13 12 11 12 13 13 12 13 13 12 14 12 11 10 11 13 12 11 11 11 11 12 13 11 10 9
16 8 11 10 4 1 2 1 3 6 8 4 12 11 13 9 4 4 5 5 2 7 8 9 10 11 12 12 14 16 15 13 12 13 13 13 12 7 6 11 13 13 11 13 13 14 14 15 16 19 19 19 17 17 19 22 20 21 21 22 20 20 18 15 18 19 17 18 18 16 13 11 11 11 12 12 11 13 12 11 13 12 11 11 11 11 10 11 10 14 11 10 10 13 12 11 10
8 12 15 10 4 4 4 4 6 10 7 2 5 11 9 21 15 2 3 6 7 8 10 10 10 11 13 12 12 10 9 10 12 12 11 10 11 10 11 12 12 12 12 16 16 15 14 14 17 19 19 20 18 18 19 21 21 21 22 22 19 16 17 18 19 19 18 18 17 16 15 13 10 12 12 11 12 14 12 11 12 13 13 11 10 10 11 12 10 9 9 13 13 13 12 12 10
10 13 13 9 6 6 6 7 2 4 2 2 5 1 10 15 12 14 18 18 21 15 10 12 14 15 13 11 8 4 5 8 8 7 7 9 9 9 11 12 12 11 13 13 13 13 12 13 16 18 20 18 17 17 18 20 21 21 21 20 18 16 18 18 17 16 16 16 16 18 17 15 13 14 13 13 12 13 11 12 12 13 13 11 12 11 10 11 11 10 9 11 12 10 11 13 13
6 5 10 6 5 6 9 8 10 7 3 4 5 4 8 3 3 5 3 7 7 7 8 9 11 11 10 7 4 4 5 5 5 6 8 10 10 11 10 11 11 11 12 12 10 12 12 13 14 17 18 17 17 18 17 19 19 20 19 18 17 17 17 16 17 14 15 16 16 15 16 15 15 15 15 14 12 14 12 12 12 11 12 12 11 11 11 11 11 10 11 10 9 8 10 11 11
9 7 2 10 13 5 6 1 3 2 3 3 5 9 4 6 7 10 8 9 12 10 11 9 11 11 8 8 10 9 7 7 7 8 9 11 11 9 8 7 8 8 10 8 11 11 13 15 16 18 19 17 17 17 17 19 19 16 18 18 19 17 13 13 12 12 12 14 15 14 16 16 15 14 14 12 13 11 13 14 14 14 13 14 13 12 11 9 10 11 10 8 10 7 9 11 10
12 11 12 6 5 5 3 1 3 3 1 10 5 8 11 9 16 20 19 16 14 12 12 10 9 9 8 10 11 9 7 7 7 8 9 11 8 8 8 9 8 8 8 10 12 11 13 12 12 14 14 12 14 16 17 16 16 16 17 19 17 17 19 16 16 17 14 14 14 13 15 14 13 13 13 11 13 9 10 12 13 16 15 13 12 11 11 10 10 11 9 9 10 8 8 9 8
8 10 9 4 2 4 2 8 3 5 8 6 8 14 10 2 12 5 4 9 12 15 17 12 9 6 8 11 9 9 9 8 9 9 10 10 8 8 8 8 9 9 10 10 12 12 11 12 13 15 14 15 15 13 14 13 14 16 15 15 17 19 15 17 17 16 14 12 11 11 10 9 10 9 8 7 8 10 13 14 13 12 12 11 12 10 11 12 11 9 10 9 10 9 10 8 8
11 13 9 9 6 9 9 3 7 7 8 6 6 12 13 12 15 2 3 8 7 7 9 11 14 11 10 10 9 9 7 6 7 9 8 8 8 8 7 8 8 8 9 9 9 9 9 10 12 13 14 14 13 11 11 10 14 10 10 16 18 17 16 15 16 15 13 13 13 9 7 10 11 9 8 10 10 11 11 12 12 11 10 11 11 11 11 11 10 9 9 9 9 10 10 10 8
4 2 13 9 2 9 9 8 1 3 7 2 5 5 10 11 14 10 15 10 10 12 10 10 12 14 8 6 7 5 5 6 6 7 7 7 7 7 8 8 8 9 8 7 8 7 10 10 10 11 9 8 9 11 11 12 11 13 14 13 15 15 15 15 12 12 12 8 8 10 11 8 10 7 8 11 13 11 11 11 10 11 11 11 11 11 11 10 10 9 9 8 9 11 11 10 8
8 10 13 9 4 4 1 0 5 5 6 8 8 8 9 5 8 8 14 16 19 18 10 9 11 8 5 7 6 5 6 5 5 5 4 5 5 5 5 5 5 3 4 5 7 8 8 8 10 11 11 11 11 11 11 11 10 11 14 16 15 14 15 15 15 13 11 15 14 11 11 11 11 10 8 11 11 12 12 11 12 11 12 11 11 10 9 10 10 9 8 9 10 11 11 8 9
13 14 16 18 14 9 12 13 5 2 6 5 6 12 8 2 4 9 11 12 11 9 9 9 9 4 4 4 5 6 5 6 6 6 5 5 5 4 3 2 2 3 4 5 5 5 7 8 7 8 10 10 11 10 9 9 8 9 14 15 15 13 14 15 16 17 15 15 15 12 11 12 13 13 11 11 11 10 10 10 11 11 10 10 10 11 9 8 9 10 10 9 10 11 11 10 10
Wind_Direction
303 345 275 278 263 286 249 358 251 119 242 100 126 220 96 64 356 181 166 139 168 129 149 127 138 150 194 324 340 360 1 218 13 290 45 72 155 153 149 144 145 145 144 148 150 153 160 172 167 139 141 139 127 121 119 123 117 114 104 100 106 97 101 107 101 99 101 101 93 94 95 93 96 99 95 94 91 94 97 93 86 87 84 82 82 79 79 80 82 83 81 80 80 80 81 81 80
332 327 245 245 300 282 182 327 271 216 201 151 108 311 91 148 209 206 165 176 48 142 145 145 157 144 5 312 288 298 145 28 12 59 90 111 150 150 149 158 153 147 145 147 151 154 155 147 135 136 141 136 129 126 123 113 110 112 111 114 114 113 114 116 114 105 93 99 105 102 100 103 101 96 96 95 86 81 81 89 98 94 88 85 84 83 82 82 83 83 84 83 83 83 83 84 85
353 322 192 222 209 3 124 249 248 303 240 132 113 103 106 198 215 164 144 96 79 107 135 132 135 173 237 210 198 255 82 27 83 90 90 140 146 168 163 159 156 148 144 145 153 154 153 138 133 138 144 140 134 129 127 123 125 131 124 119 109 109 119 122 117 108 106 104 106 104 104 105 103 101 103 102 92 87 87 90 88 84 84 86 85 85 86 87 86 85 86 87 86 85 84 83 83
222 6 298 194 248 234 250 207 274 246 249 43 130 112 193 232 196 94 93 69 107 138 142 144 167 119 284 229 12 301 205 140 147 129 132 164 168 154 160 160 154 150 142 146 155 151 159 129 140 143 146 144 139 134 130 124 131 131 113 126 111 115 117 119 112 112 110 112 109 100 99 102 104 105 104 98 97 93 91 74 71 82 88 86 88 88 88 87 88 88 87 88 88 88 87 86 86
201 27 331 318 275 122 311 46 334 274 240 160 50 115 207 223 125 128 104 104 125 164 178 163 179 98 340 328 337 292 65 76 179 185 140 160 136 152 158 156 161 151 148 151 152 155 146 115 148 144 150 148 146 143 134 131 126 113 129 114 107 114 116 118 114 111 112 110 105 100 103 106 105 103 104 98 89 93 90 78 76 79 85 91 93 90 89 89 88 89 89 89 89 87 87 86 86
116 303 36 318 292 23 189 184 181 215 38 55 110 63 352 180 162 131 125 137 123 278 332 176 281 158 190 174 18 325 128 192 114 187 155 154 150 153 156 157 161 156 150 153 154 158 153 111 135 149 157 153 152 145 138 138 130 108 111 128 119 114 106 122 120 122 116 111 103 101 103 103 96 99 105 104 103 96 91 86 84 85 88 87 89 89 88 89 89 90 89 88 86 86 86 86 86
357 231 59 90 118 246 269 205 183 230 111 319 23 71 21 151 134 133 136 139 178 314 194 187 240 124 217 128 169 231 45 84 180 141 183 149 148 154 156 163 157 153 154 155 156 157 147 113 121 161 163 156 155 148 143 138 134 127 123 127 121 119 113 117 122 121 111 109 105 104 103 102 105 105 106 107 100 94 90 90 93 91 89 88 85 86 88 86 87 87 86 85 85 85 86 87 86
121 270 29 266 94 272 178 205 230 238 97 264 3 323 46 157 158 163 156 178 169 198 180 263 251 271 59 293 261 106 90 223 15 155 157 158 153 154 165 163 159 154 158 159 160 159 126 114 124 180 169 160 157 150 147 143 139 136 124 126 130 118 120 122 128 123 114 110 107 106 105 105 104 105 105 108 103 96 92 92 89 88 84 82 84 85 86 86 85 85 83 83 84 84 85 85 84
27 35 227 219 178 27 186 209 213 360 313 200 226 249 342 217 193 172 167 167 105 231 164 184 198 217 112 158 177 113 117 106 157 164 160 157 160 158 168 168 162 156 158 163 162 158 164 111 145 162 166 164 163 164 151 145 144 139 135 131 127 122 126 123 121 120 115 112 111 111 110 109 108 108 108 107 105 106 102 97 93 91 87 83 84 86 88 87 88 86 85 86 85 85 84 84 83
98 306 175 253 15 211 259 173 227 147 248 122 267 204 199 179 202 222 165 165 164 169 144 78 168 262 93 192 138 172 120 150 151 163 165 159 162 163 168 171 163 159 160 164 164 167 160 138 139 142 153 157 163 181 157 149 147 144 143 141 145 131 126 124 121 117 114 116 115 114 114 114 114 111 109 111 113 108 102 99 97 95 93 91 88 89 90 89 89 91 90 89 88 85 85 85 85
208 71 9 204 207 217 221 154 222 175 223 246 260 239 206 164 196 201 189 153 98 176 122 174 183 221 225 123 360 53 70 153 164 164 166 162 163 165 168 174 167 165 162 167 167 170 163 166 134 138 117 148 157 175 156 146 151 148 149 156 156 128 125 130 128 125 121 119 121 120 119 115 110 109 106 105 102 103 101 100 100 98 95 95 94 93 93 93 94 94 95 93 90 88 86 86 84
200 194 182 230 226 236 182 263 222 245 253 249 253 141 174 176 175 192 190 173 169 161 171 183 174 148 211 266 165 117 126 165 168 159 163 163 167 168 167 175 172 167 164 169 171 176 169 166 172 128 101 139 144 161 168 152 150 150 154 154 142 127 131 129 129 130 125 121 115 110 109 112 110 109 106 98 90 107 111 107 105 100 98 99 99 97 97 95 94 95 98 94 90 90 87 86 83
326 138 203 232 215 229 65 255 204 320 283 221 218 86 144 166 191 203 184 185 165 164 192 196 77 212 210 201 73 131 170 170 163 157 161 167 165 166 164 173 175 171 166 173 175 177 180 173 175 173 140 137 140 139 136 136 145 146 147 143 152 92 120 132 136 131 121 121 118 115 109 106 105 105 102 96 93 104 109 106 108 108 105 101 102 103 100 99 99 99 97 93 92 91 89 86 84
230 264 191 217 44 212 201 245 53 259 202 91 56 98 179 180 210 242 174 188 183 193 58 161 147 163 244 192 157 173 179 169 160 158 161 167 158 160 168 173 175 176 173 179 179 179 184 180 176 174 155 169 163 145 126 126 135 143 143 147 129 90 114 113 118 119 119 115 106 102 106 105 99 97 101 85 78 84 88 98 106 111 111 105 105 105 103 102 101 102 97 92 91 90 89 86 81
51 252 213 91 163 216 187 231 225 211 186 103 87 166 176 244 351 202 199 209 170 38 108 326 37 189 143 203 140 177 161 163 163 156 161 159 158 164 170 172 174 182 181 186 184 184 185 185 181 177 176 178 170 172 168 137 129 126 133 135 105 112 111 110 110 111 113 112 109 106 102 99 94 92 89 95 92 93 93 91 96 112 114 112 106 107 106 101 103 98 91 89 89 88 86 85 78
105 198 229 202 205 212 170 223 128 234 157 144 102 357 188 106 282 180 192 341 74 69 192 174 229 282 20 305 68 78 145 154 162 155 158 161 163 166 169 177 180 183 187 190 189 190 187 187 187 179 178 182 175 177 171 164 128 123 128 121 115 117 120 118 116 114 115 114 113 116 113 114 111 100 100 96 91 90 84 98 95 112 118 118 112 109 109 103 101 92 91 89 85 85 81 75 72
133 287 186 215 220 195 160 206 165 222 89 123 129 173 184 171 123 297 358 254 226 156 210 336 198 334 353 57 54 113 148 152 156 156 160 161 165 166 175 181 185 186 190 195 196 191 189 192 191 185 183 184 183 177 174 173 135 134 128 114 118 124 127 126 119 118 117 120 128 124 141 149 147 135 141 127 120 104 103 94 87 91 110 118 117 112 104 100 97 96 92 89 88 88 87 81 69
206 202 225 215 223 200 170 194 185 33 119 117 180 197 208 182 161 142 169 183 212 120 222 160 262 239 13 42 359 147 146 156 163 162 166 167 172 172 181 186 188 189 191 193 199 194 190 193 194 192 189 189 186 180 176 174 155 184 181 162 152 139 132 136 148 151 151 146 136 159 168 162 161 163 147 141 137 128 111 101 97 94 92 92 113 118 104 100 95 93 90 86 84 88 147 139 117
214 165 230 234 191 189 156 191 172 188 107 81 115 202 236 108 168 162 209 191 194 210 218 209 225 204 147 77 124 154 156 163 170 174 171 175 180 183 185 188 193 188 191 194 196 198 193 191 196 194 195 192 188 181 184 182 180 188 186 184 174 170 157 169 178 166 178 171 173 180 177 165 166 165 158 111 91 60 85 92 96 94 93 90 92 95 98 93 95 92 92 93 90 131 139 123 113
212 213 224 235 146 150 239 153 183 247 123 121 158 155 229 113 213 123 226 185 181 223 213 200 225 216 178 137 151 160 167 169 178 180 181 182 185 187 187 190 195 194 189 191 192 196 194 194 194 195 194 195 192 190 188 191 191 189 187 187 187 188 183 188 189 186 186 183 183 188 183 163 167 155 84 113 130 144 98 86 93 95 95 91 112 113 107 106 111 111 111 128 154 166 133 140 133
143 227 231 228 140 194 182 203 205 145 250 211 130 119 204 196 214 190 193 206 218 235 234 228 219 213 158 157 165 168 175 176 185 189 189 189 191 194 195 195 195 193 189 184 194 196 197 196 192 194 193 194 197 192 192 194 192 192 191 193 194 192 192 193 194 192 189 183 186 194 180 161 160 160 165 164 178 166 164 158 157 171 167 147 217 174 175 155 185 151 145 186 143 148 155 153 168
144 223 251 99 139 224 107 176 123 173 343 206 144 194 170 97 163 224 198 219 220 227 235 229 248 161 152 164 171 174 182 184 189 192 195 194 193 194 196 198 197 194 183 192 194 195 197 198 196 193 193 194 196 195 195 190 191 194 194 195 196 196 194 196 194 195 191 188 188 190 176 171 171 164 174 174 175 176 176 180 185 186 184 181 199 193 191 185 184 181 175 172 159 161 166 152 183
222 219 232 175 171 234 101 129 140 169 159 184 198 184 107 184 203 216 229 232 257 65 54 329 262 199 164 161 164 181 187 191 192 196 197 197 199 200 198 196 194 195 189 197 191 194 195 199 198 195 195 195 197 197 195 191 197 198 195 195 196 198 196 197 196 196 194 191 191 180 181 190 191 180 177 179 179 180 184 181 183 187 189 190 198 201 190 186 197 193 194 170 146 163 163 148 143
246 237 175 202 165 220 125 118 141 207 189 190 41 93 236 163 232 135 218 237 255 104 72 4 36 142 148 164 180 184 188 191 197 199 199 200 198 197 196 197 195 198 197 195 194 192 193 197 198 198 197 196 196 199 198 197 198 199 198 187 206 198 201 201 199 197 192 195 194 185 191 192 194 195 187 186 183 187 184 185 181 187 196 197 187 211 190 187 195 190 186 164 173 173 180 185 174
220 240 203 135 173 263 75 107 204 213 237 62 188 229 244 213 268 131 230 237 248 212 141 116 145 155 170 179 185 190 190 196 202 201 204 207 205 203 204 203 201 199 204 199 194 195 193 196 197 200 200 199 198 197 200 200 200 201 198 198 202 194 207 206 200 195 197 197 197 195 188 190 190 192 192 195 189 193 180 186 189 194 195 197 196 198 202 194 196 190 196 204 210 211 201 201 208
224 231 128 152 193 135 266 243 228 224 222 197 219 241 245 146 71 248 251 241 238 112 182 165 151 171 183 194 191 189 193 197 200 199 202 200 203 204 205 207 205 206 205 202 198 198 193 195 199 201 203 201 201 199 202 202 201 203 203 202 200 190 209 208 200 200 201 193 196 200 194 200 193 192 190 190 192 195 191 191 196 194 198 192 207 198 197 207 198 191 197 212 215 226 235 212 257
196 218 216 210 170 290 137 253 234 162 239 175 237 257 242 133 192 255 209 242 143 166 192 186 194 198 194 195 193 197 198 198 198 199 193 202 205 207 207 208 210 209 205 205 204 199 193 193 199 203 204 204 202 204 204 204 203 205 204 204 202 202 203 204 206 209 204 198 197 194 199 207 199 197 189 185 193 191 195 196 198 194 200 197 207 206 184 212 201 201 199 209 218 225 234 234 256
100 200 206 249 252 246 248 260 251 187 250 198 226 258 75 183 208 238 236 98 174 199 195 196 213 214 206 201 194 195 202 204 198 192 198 199 204 203 204 206 208 206 205 205 204 201 196 197 198 202 205 203 207 207 206 208 207 208 205 206 206 206 200 201 206 213 206 203 198 192 202 204 207 202 196 187 194 191 192 196 197 197 201 193 202 204 192 205 205 191 186 227 244 245 248 246 248
132 165 195 218 231 252 230 235 234 180 248 161 192 272 245 186 237 197 233 125 192 218 209 205 211 218 215 206 202 198 203 196 193 198 207 207 203 199 204 206 205 206 208 206 205 200 203 200 201 201 203 203 206 210 209 210 210 208 208 208 207 205 204 204 205 208 210 208 199 194 203 201 201 207 199 198 196 200 196 192 202 203 203 191 190 199 208 207 206 199 190 201 217 232 244 243 219
142 182 241 193 213 243 227 220 217 195 239 157 162 259 244 223 219 206 203 174 190 219 229 213 211 214 217 210 207 208 202 196 198 206 208 208 204 201 205 203 205 206 203 206 206 205 201 202 205 204 204 205 206 210 212 211 210 208 210 211 208 204 206 207 207 207 207 210 202 199 202 202 202 207 203 198 201 207 204 209 216 211 206 190 188 187 204 208 211 208 205 206 212 227 230 231 235
192 140 205 238 202 233 149 191 174 214 172 166 182 252 260 258 205 217 163 178 185 222 228 219 210 210 212 211 214 213 209 207 207 208 210 208 205 205 207 206 205 207 204 207 208 205 199 200 198 205 200 206 203 209 211 213 210 208 210 215 211 208 207 210 208 207 206 208 204 201 201 201 202 205 201 200 201 207 207 216 224 224 204 194 200 200 211 210 217 215 213 217 217 225 236 238 239
158 156 215 188 227 207 128 169 183 210 153 188 177 252 257 252 227 186 160 184 195 230 235 229 218 209 208 208 214 217 217 212 216 216 213 209 206 206 205 208 206 205 208 207 206 205 205 206 199 205 202 206 207 207 210 212 210 210 213 213 215 209 210 210 209 206 204 205 205 204 198 200 200 202 199 201 201 204 214 222 221 219 191 200 210 201 210 220 219 222 221 227 232 232 235 236 236
209 231 148 190 197 234 225 188 201 220 107 196 200 243 261 255 228 216 160 182 201 221 233 229 225 215 209 211 211 215 215 216 216 217 214 208 209 208 206 208 207 207 207 206 205 206 209 206 198 205 206 206 208 208 210 212 213 213 214 212 214 210 211 212 211 207 205 205 206 205 196 198 198 199 198 197 204 202 214 222 220 205 190 204 206 206 211 223 223 221 224 217 238 246 237 245 248
189 227 208 194 200 207 225 111 198 191 211 214 216 240 249 259 179 217 108 199 206 221 239 237 228 226 215 213 210 210 213 216 218 216 213 209 210 209 210 208 208 206 208 208 207 207 208 208 206 207 212 210 209 210 208 212 214 214 215 216 211 211 210 212 213 213 211 209 208 207 197 194 198 199 199 197 207 205 207 211 217 196 189 205 211 211 219 218 226 226 230 220 220 236 246 247 250
158 177 209 215 222 224 226 201 133 179 198 237 221 229 248 255 250 216 205 173 203 225 236 250 246 236 233 223 226 223 219 218 226 217 208 207 211 210 211 210 208 206 205 208 210 211 212 213 211 205 206 210 208 209 209 211 215 217 217 215 214 214 216 213 211 211 214 213 210 206 197 197 195 197 197 198 205 202 207 211 216 195 201 209 215 215 217 208 215 224 236 231 209 232 248 251 258
181 187 196 190 190 205 221 199 102 210 201 219 232 233 238 251 250 243 245 212 217 236 240 249 250 239 239 231 225 226 225 232 236 219 205 204 207 208 208 207 205 206 209 211 213 211 212 212 213 213 206 210 212 210 206 207 209 214 215 214 215 213 216 214 211 211 210 215 214 206 204 208 193 194 194 195 202 206 208 208 210 189 199 212 216 218 216 213 211 215 222 234 225 216 232 249 253
184 177 177 202 207 207 135 206 125 139 249 239 236 240 249 256 258 252 242 246 246 245 240 235 243 235 219 223 226 224 225 230 228 211 206 206 208 208 209 207 209 209 212 213 212 213 214 212 210 213 207 206 211 208 208 201 201 207 214 215 215 212 212 214 213 208 210 213 213 215 215 216 197 188 191 190 201 206 211 207 206 193 196 211 220 221 219 220 215 217 221 211 226 231 229 220 218
177 171 186 203 204 230 183 202 137 175 236 257 244 260 256 256 260 260 250 240 248 244 242 236 238 243 233 217 224 225 229 226 187 233 227 217 214 209 205 207 208 209 212 211 212 213 213 213 215 214 210 207 213 214 209 207 208 206 205 212 212 211 211 212 214 209 210 208 209 212 214 215 208 190 183 188 195 200 205 206 202 204 190 210 223 229 227 225 213 209 208 213 208 232 242 225 182
187 193 191 205 216 266 293 215 191 170 231 262 270 271 264 260 261 262 252 237 242 245 243 245 234 239 244 228 226 231 229 234 216 222 222 217 214 208 206 210 212 216 214 211 212 211 212 215 216 214 213 211 211 214 213 211 209 211 212 214 209 219 220 214 214 214 205 209 207 207 209 215 215 210 199 191 190 193 202 207 207 203 199 202 215 227 236 231 219 212 209 226 222 206 237 214 181
187 187 178 212 162 173 233 186 181 185 219 296 306 289 274 267 256 255 255 247 241 237 241 245 238 241 245 244 225 221 229 233 227 212 214 216 209 205 206 211 213 212 214 216 214 212 211 215 215 213 214 213 210 211 211 214 209 210 216 222 219 221 222 215 216 214 206 204 210 206 211 213 210 205 208 208 198 194 201 212 210 205 206 195 214 225 230 230 220 213 212 216 230 227 200 217 195
208 206 205 196 155 203 248 107 360 258 239 266 283 283 274 251 250 245 246 235 232 237 238 244 241 236 244 250 244 223 231 228 231 224 214 213 207 206 205 208 206 207 212 216 212 207 209 210 211 211 212 210 210 210 206 209 206 207 209 214 225 226 226 223 218 219 213 210 205 211 216 214 213 210 205 215 217 210 199 202 206 203 203 200 204 213 218 219 219 214 209 209 207 231 231 229 206
198 219 214 212 165 186 162 24 336 277 269 180 251 294 273 230 224 239 256 243 228 232 232 237 238 231 225 237 237 227 223 224 232 231 215 208 211 211 208 206 204 209 212 215 212 209 208 208 207 207 210 212 212 213 207 203 207 208 203 209 213 219 225 222 220 220 214 209 208 211 215 218 219 218 217 216 209 194 214 212 199 201 207 204 199 207 216 219 220 220 213 219 210 208 234 233 229
195 206 191 182 186 194 166 169 120 258 260 143 254 246 278 183 259 220 233 259 257 241 225 236 236 231 221 223 221 218 215 217 222 234 229 206 212 209 206 205 205 210 215 209 205 210 209 209 207 206 207 210 210 211 206 200 208 210 210 210 214 218 224 228 226 223 218 217 209 213 212 204 213 214 214 211 202 200 211 212 200 209 217 211 196 206 217 226 221 206 206 214 226 208 209 236 234
222 128 166 190 191 189 195 198 213 258 19 270 200 251 284 284 249 248 249 259 261 253 244 235 229 230 232 228 222 225 220 216 207 217 222 216 209 204 207 206 205 210 211 199 203 205 205 207 204 204 207 209 208 206 209 203 206 208 210 212 215 220 219 226 221 220 220 218 209 214 212 211 204 207 203 206 207 204 208 212 199 197 205 210 197 214 212 214 227 206 201 205 220 221 204 218 227
204 141 158 183 191 201 189 208 219 297 2 276 215 162 277 262 91 183 207 245 247 251 246 240 236 234 233 232 227 216 219 217 212 213 220 211 209 210 210 207 209 210 197 194 201 204 207 209 208 207 208 209 208 205 209 205 206 210 210 212 216 220 224 227 221 215 216 216 222 219 208 208 202 205 206 204 201 207 199 207 212 210 202 205 198 211 219 204 211 225 213 213 220 230 228 225 222
139 140 131 146 146 101 179 195 190 228 229 254 183 175 246 277 192 201 188 229 249 245 247 247 238 232 227 234 237 227 219 220 218 221 223 219 211 212 213 215 206 203 204 200 202 203 207 208 208 208 211 210 209 210 211 213 208 209 211 213 216 221 219 226 223 224 221 222 227 222 207 207 201 201 204 206 210 217 213 202 213 219 213 208 194 199 212 220 215 217 215 207 203 216 220 219 213
127 124 115 98 77 101 46 71 200 202 241 249 170 174 220 290 252 193 160 215 214 243 253 254 253 246 234 229 233 232 222 221 219 221 225 229 221 216 196 211 219 213 197 198 203 205 201 199 203 207 212 211 208 211 209 213 207 212 215 216 217 221 220 219 216 224 224 219 223 222 213 213 208 202 202 209 208 208 210 210 212 213 213 219 206 200 208 212 211 214 214 211 208 213 218 216 215
145 137 127 112 81 66 123 186 208 224 248 121 163 177 183 241 240 184 140 93 199 223 253 258 250 243 238 228 229 232 225 218 219 218 223 228 232 205 187 214 213 211 194 201 209 207 205 204 203 209 212 211 209 207 205 214 213 215 218 219 217 218 216 214 217 218 216 219 219 221 216 210 213 208 204 204 203 201 202 203 205 205 206 209 209 207 202 206 212 215 208 202 214 219 218 211 212
169 148 145 152 162 144 205 178 209 215 240 175 194 177 217 233 239 5 235 258 266 215 234 254 262 258 245 239 233 228 225 219 219 215 216 221 220 207 202 214 213 202 192 201 204 203 204 204 204 207 212 208 209 205 203 207 211 215 216 219 220 216 215 217 219 221 217 218 219 220 217 215 213 209 207 199 199 197 196 201 201 206 205 201 203 202 207 204 206 210 200 205 212 218 219 213 214
169 165 164 155 160 181 213 200 298 296 191 194 159 326 261 269 290 244 246 247 255 263 254 236 244 253 257 248 251 249 223 235 240 236 232 232 220 213 213 214 212 205 205 202 202 198 200 203 204 207 215 208 206 205 205 206 210 214 215 217 217 214 217 215 216 217 214 216 217 218 218 217 214 214 208 202 197 194 199 201 201 205 207 203 208 209 204 202 197 202 205 203 204 207 213 214 218
182 155 178 176 169 177 194 190 205 213 235 135 194 143 244 192 203 25 302 307 298 288 270 265 256 257 259 277 313 276 259 250 242 247 241 241 240 226 216 212 212 207 206 203 200 201 202 207 206 210 216 211 205 205 204 206 210 213 214 213 215 218 216 215 218 215 213 213 215 214 217 217 217 218 216 212 198 196 201 202 203 207 207 214 211 205 208 208 202 202 209 210 205 197 198 204 210
185 182 352 195 212 192 231 307 226 142 152 162 193 223 268 225 8 304 267 257 258 247 251 234 243 246 252 260 254 240 235 239 227 228 238 240 237 234 229 224 222 215 208 201 203 200 201 207 208 211 213 210 205 201 204 206 209 211 212 213 215 215 216 215 217 216 215 216 214 212 218 216 218 219 217 208 202 196 202 203 205 209 208 212 211 207 205 207 204 202 207 204 208 192 195 197 199
172 177 201 193 23 92 103 68 47 62 349 245 176 274 266 288 277 253 251 257 259 261 253 230 241 246 244 247 245 240 228 225 229 230 234 238 229 218 223 225 219 208 203 206 208 204 206 207 210 217 220 216 211 205 209 208 209 210 213 216 217 216 217 215 217 217 214 215 215 214 219 217 219 220 219 202 202 187 199 204 207 209 208 210 209 205 201 204 206 205 201 195 193 180 189 188 183
125 201 197 123 74 8 205 230 120 220 230 249 164 236 261 5 283 89 188 231 236 247 257 260 245 230 244 247 251 242 236 222 228 236 239 241 238 226 215 219 218 210 204 204 209 205 206 209 210 214 217 217 218 215 213 214 211 214 214 217 220 220 218 221 223 222 220 217 214 215 210 211 213 211 195 194 196 191 205 205 208 203 203 203 203 199 199 200 203 207 200 193 192 182 186 187 186
180 187 148 157 182 199 207 212 208 193 218 251 216 236 257 227 243 185 169 190 215 225 232 236 244 237 233 249 252 246 242 240 235 237 242 240 228 226 214 213 217 218 212 211 206 200 203 210 214 215 217 214 212 210 209 214 218 216 220 222 222 222 222 224 225 224 223 220 216 205 199 210 219 207 203 205 201 201 202 204 205 203 199 202 200 200 199 200 197 204 197 191 182 180 184 184 179
302 171 180 210 306 211 174 208 321 183 239 234 258 145 262 194 232 214 233 219 237 253 241 233 235 240 228 246 259 253 246 239 236 237 236 241 240 227 220 218 211 209 210 208 201 196 207 210 209 218 224 217 213 212 207 214 209 213 218 221 223 223 222 223 219 213 213 207 208 209 211 201 210 199 202 207 210 204 201 200 200 202 201 199 200 200 197 196 194 201 189 185 179 179 186 182 166
171 183 192 192 211 337 273 359 202 203 218 222 267 264 243 212 179 189 221 226 234 246 257 246 237 239 210 238 254 258 255 250 250 260 260 255 257 240 229 228 233 226 219 203 198 201 201 197 206 209 212 214 215 214 209 211 205 208 216 221 221 219 220 220 220 214 213 221 218 210 211 210 214 211 189 206 206 204 201 200 200 202 201 199 200 200 195 191 188 190 187 187 174 177 179 176 166
190 188 194 189 172 157 177 213 165 214 200 217 196 251 272 175 161 196 220 230 233 232 233 251 251 223 201 228 233 232 252 260 270 270 267 265 258 254 232 203 209 226 220 206 200 192 194 197 198 197 205 210 208 206 204 203 203 205 214 220 220 218 218 220 220 220 216 218 217 209 208 208 213 214 207 209 206 204 202 200 201 202 202 199 200 201 190 185 183 187 191 187 179 181 179 168 169